TimeCDT,TemperatureF,Dew PointF,Humidity,Sea Level PressureIn,VisibilityMPH,Wind Direction,Wind SpeedMPH,Gust SpeedMPH,PrecipitationIn,Events,Conditions,WindDirDegrees,DateUTC
12:15 AM,45.9,35.2,66,30.32,10.0,East,5.8,-,N/A,,Clear,100,2013-05-25 05:15:00
12:35 AM,45.1,35.6,69,30.32,10.0,ESE,4.6,-,N/A,,Clear,110,2013-05-25 05:35:00
12:55 AM,44.6,35.6,71,30.32,10.0,ESE,3.5,-,N/A,,Clear,120,2013-05-25 05:55:00
1:15 AM,44.4,35.6,71,30.32,10.0,SE,3.5,-,N/A,,Clear,130,2013-05-25 06:15:00
1:35 AM,43.5,35.6,74,30.32,10.0,Calm,Calm,-,N/A,,Clear,0,2013-05-25 06:35:00
1:55 AM,41.9,35.2,77,30.33,10.0,Calm,Calm,-,N/A,,Clear,0,2013-05-25 06:55:00
2:15 AM,42.3,35.2,76,30.32,10.0,SSE,3.5,-,N/A,,Clear,150,2013-05-25 07:15:00
2:35 AM,42.1,35.6,78,30.32,10.0,Calm,Calm,-,N/A,,Clear,0,2013-05-25 07:35:00
2:55 AM,41.9,35.4,78,30.32,10.0,South,3.5,-,N/A,,Clear,170,2013-05-25 07:55:00
3:15 AM,41.9,35.6,78,30.32,10.0,SE,3.5,-,N/A,,Clear,140,2013-05-25 08:15:00
3:35 AM,42.1,35.4,77,30.32,10.0,SSE,3.5,-,N/A,,Clear,150,2013-05-25 08:35:00
3:55 AM,41.0,35.1,79,30.32,10.0,SE,3.5,-,N/A,,Clear,130,2013-05-25 08:55:00
4:15 AM,40.8,34.7,79,30.32,10.0,Calm,Calm,-,N/A,,Clear,0,2013-05-25 09:15:00
4:35 AM,39.0,34.5,84,30.33,10.0,Calm,Calm,-,N/A,,Clear,0,2013-05-25 09:35:00
4:55 AM,38.8,37.8,96,30.34,10.0,Calm,Calm,-,N/A,,Clear,0,2013-05-25 09:55:00
5:15 AM,38.1,37.2,97,30.34,10.0,Calm,Calm,-,N/A,,Clear,0,2013-05-25 10:15:00
5:35 AM,36.0,35.6,99,30.35,10.0,Calm,Calm,-,N/A,,Clear,0,2013-05-25 10:35:00
5:55 AM,38.1,37.2,97,30.36,10.0,Calm,Calm,-,N/A,,Clear,0,2013-05-25 10:55:00
6:15 AM,41.4,37.8,87,30.37,10.0,Calm,Calm,-,N/A,,Clear,0,2013-05-25 11:15:00
6:35 AM,43.0,36.5,78,30.38,10.0,Calm,Calm,-,N/A,,Clear,0,2013-05-25 11:35:00
6:55 AM,45.5,34.2,65,30.39,10.0,SSE,3.5,-,N/A,,Clear,150,2013-05-25 11:55:00
7:15 AM,47.1,33.3,59,30.39,10.0,SSE,5.8,-,N/A,,Clear,160,2013-05-25 12:15:00
7:35 AM,49.1,33.6,55,30.39,10.0,SE,4.6,-,N/A,,Clear,140,2013-05-25 12:35:00
7:55 AM,50.2,32.0,50,30.39,10.0,SSE,4.6,-,N/A,,Clear,160,2013-05-25 12:55:00
8:15 AM,51.4,32.0,47,30.38,10.0,SE,6.9,-,N/A,,Clear,130,2013-05-25 13:15:00
8:35 AM,52.3,31.8,46,30.37,10.0,SSE,10.4,-,N/A,,Clear,160,2013-05-25 13:35:00
8:55 AM,53.6,32.0,44,30.38,10.0,SSE,4.6,-,N/A,,Clear,150,2013-05-25 13:55:00
9:15 AM,54.9,32.0,42,30.37,10.0,SSE,5.8,-,N/A,,Clear,150,2013-05-25 14:15:00
9:35 AM,56.3,32.0,40,30.36,10.0,SE,4.6,-,N/A,,Clear,130,2013-05-25 14:35:00